FW1642 Weather Reports


time (UTC)temp
C
wind
direction
speed
KPH
gust
KPH
rain 1hr
cm
rain 24hr
cm
rain mn
cm
humidity
%
barometer
mb
20260502200004 20 7 4.8 8.0 0.00 0.00 0.00 18 1018.8
20260502195502 20 307 11.3 16.1 0.00 0.00 0.00 20 1018.8
20260502194957 20 223 1.6 6.4 0.00 0.00 0.00 22 1018.6
20260502194455 20 305 16.1 17.7 0.00 0.00 0.00 17 1018.9
20260502193950 20 312 3.2 9.7 0.00 0.00 0.00 18 1018.8
20260502193448 20 316 16.1 19.3 0.00 0.00 0.00 19 1019.0
20260502192943 19 59 3.2 6.4 0.00 0.00 0.00 15 1019.0
20260502192440 19 325 9.7 17.7 0.00 0.00 0.00 17 1019.1
20260502191937 19 6 4.8 11.3 0.00 0.00 0.00 22 1019.0
20260502191435 20 14 16.1 16.1 0.00 0.00 0.00 20 1019.2
20260502190932 19 8 14.5 16.1 0.00 0.00 0.00 16 1019.1
20260502190429 20 83 0.0 4.8 0.00 0.00 0.00 21 1019.4
20260502185926 19 336 3.2 11.3 0.00 0.00 0.00 20 1019.2
20260502185421 19 316 9.7 14.5 0.00 0.00 0.00 19 1019.4
20260502184919 19 46 3.2 9.7 0.00 0.00 0.00 19 1019.6
20260502184414 18 49 6.4 14.5 0.00 0.00 0.00 18 1019.9
20260502183911 19 346 3.2 14.5 0.00 0.00 0.00 18 1019.8
20260502183407 18 17 4.8 9.7 0.00 0.00 0.00 18 1019.7
20260502182902 18 322 8.0 11.3 0.00 0.00 0.00 23 1019.7
20260502182358 18 346 3.2 11.3 0.00 0.00 0.00 20 1019.9
20260502181854 18 323 6.4 12.9 0.00 0.00 0.00 20 1019.8
20260502181353 18 358 6.4 12.9 0.00 0.00 0.00 19 1020.2
20260502180851 18 300 3.2 14.5 0.00 0.00 0.00 25 1019.9
20260502180348 18 347 6.4 14.5 0.00 0.00 0.00 26 1020.0
20260502170306 15 359 4.8 12.9 0.00 0.00 0.00 29 1020.7
20260502164254 15 16 9.7 12.9 0.00 0.00 0.00 26 1020.5
20260502163749 15 355 3.2 9.7 0.00 0.00 0.00 29 1020.7
20260502163246 14 15 3.2 9.7 0.00 0.00 0.00 27 1020.8
20260502162743 13 12 4.8 6.4 0.00 0.00 0.00 23 1020.8
20260502162240 13 343 4.8 6.4 0.00 0.00 0.00 25 1021.0
20260502161737 13 51 4.8 9.7 0.00 0.00 0.00 28 1020.8
20260502161233 13 0 4.8 9.7 0.00 0.00 0.00 30 1020.8
20260502160732 13 331 3.2 6.4 0.00 0.00 0.00 31 1020.8
20260502160230 13 25 8.0 8.0 0.00 0.00 0.00 29 1021.2
20260502152154 11 29 3.2 6.4 0.00 0.00 0.00 31 1021.5
20260502151652 11 339 4.8 6.4 0.00 0.00 0.00 34 1021.2
20260502151149 11 332 4.8 9.7 0.00 0.00 0.00 32 1021.4
20260502150646 11 358 3.2 6.4 0.00 0.00 0.00 30 1021.3
20260502150142 12 358 3.2 4.8 0.00 0.00 0.00 27 1021.5
20260502140106 7 119 3.2 11.3 0.00 0.00 0.00 48 1021.4
20260502130531 1 116 3.2 3.2 0.00 0.00 0.00 61 1021.3
20260502123515 0 60 4.8 4.8 0.00 0.00 0.00 68 1021.2
20260502123011 0 89 3.2 4.8 0.00 0.00 0.00 67 1021.1
20260502122507 0 138 1.6 4.8 0.00 0.00 0.00 67 1021.0
20260502122005 0 98 3.2 4.8 0.00 0.00 0.00 67 1020.8
20260502121502 0 110 3.2 4.8 0.00 0.00 0.00 66 1020.8
20260502121000 0 106 4.8 6.4 0.00 0.00 0.00 65 1020.8
20260502120456 0 126 3.2 6.4 0.00 0.00 0.00 65 1020.8
20260502115450 0 102 3.2 6.4 0.00 0.00 0.00 62 1021.1
20260502114946 0 121 4.8 6.4 0.00 0.00 0.00 63 1020.8
20260502114443 0 130 3.2 4.8 0.00 0.00 0.00 63 1020.6
20260502113940 0 116 3.2 6.4 0.00 0.00 0.00 63 1020.8
20260502113438 0 113 4.8 6.4 0.00 0.00 0.00 63 1021.0
20260502112936 0 119 6.4 6.4 0.00 0.00 0.00 66 1020.7
20260502112433 0 103 3.2 4.8 0.00 0.00 0.00 67 1020.8
20260502111931 0 114 3.2 4.8 0.00 0.00 0.00 66 1020.8
20260502111428 0 111 3.2 6.4 0.00 0.00 0.00 64 1020.8
20260502110925 0 121 4.8 6.4 0.00 0.00 0.00 62 1020.6
20260502110423 0 105 3.2 3.2 0.00 0.00 0.00 61 1020.7
20260502105920 0 92 6.4 6.4 0.00 0.00 0.00 63 1020.5
20260502105417 0 78 4.8 8.0 0.00 0.00 0.00 62 1020.7
20260502104915 0 135 3.2 4.8 0.00 0.00 0.00 61 1020.7
20260502104412 0 129 1.6 3.2 0.00 0.00 0.00 61 1020.6
20260502103909 0 84 3.2 6.4 0.00 0.00 0.00 60 1020.7
20260502103407 1 113 3.2 6.4 0.00 0.00 0.00 58 1020.7
20260502102904 1 133 3.2 4.8 0.00 0.00 0.00 57 1020.6
20260502102400 1 120 3.2 4.8 0.00 0.00 0.00 57 1020.8
20260502101858 1 120 3.2 4.8 0.00 0.00 0.00 56 1020.5
20260502101356 2 103 4.8 8.0 0.00 0.00 0.00 55 1020.6
20260502100854 1 110 4.8 6.4 0.00 0.00 0.00 56 1020.4
20260502100353 1 104 3.2 6.4 0.00 0.00 0.00 56 1020.5
20260502091327 2 154 4.8 8.0 0.00 0.00 0.00 51 1020.4
20260502090824 3 112 6.4 9.7 0.00 0.00 0.00 52 1020.3
20260502090321 2 144 4.8 8.0 0.00 0.00 0.00 53 1020.3
20260502071216 1 138 3.2 4.8 0.00 0.00 0.00 56 1020.0
20260502070714 1 111 1.6 4.8 0.00 0.00 0.00 57 1019.9
20260502070212 2 103 3.2 4.8 0.00 0.00 0.00 55 1019.8
20260502065710 2 129 4.8 6.4 0.00 0.00 0.00 53 1019.7
20260502065207 3 110 3.2 6.4 0.00 0.00 0.00 51 1019.9
20260502064706 3 123 4.8 8.0 0.00 0.00 0.00 49 1019.9
20260502064202 3 99 4.8 6.4 0.00 0.00 0.00 48 1020.0
20260502063700 3 105 4.8 6.4 0.00 0.00 0.00 47 1019.9
20260502063158 3 137 4.8 6.4 0.00 0.00 0.00 46 1020.0
20260502062655 3 114 6.4 8.0 0.00 0.00 0.00 46 1019.8
20260502062152 3 112 4.8 8.0 0.00 0.00 0.00 46 1019.6
20260502061651 3 119 6.4 8.0 0.00 0.00 0.00 46 1019.7
20260502061148 3 120 4.8 6.4 0.00 0.00 0.00 47 1019.7
20260502060648 3 113 4.8 6.4 0.00 0.00 0.00 45 1019.8
20260502060145 4 127 6.4 6.4 0.00 0.00 0.00 44 1019.7
20260502055643 5 149 4.8 6.4 0.00 0.00 0.00 43 1019.8
20260502055140 4 124 3.2 4.8 0.00 0.00 0.00 42 1019.8
20260502054639 5 96 3.2 4.8 0.00 0.00 0.00 44 1019.8
20260502054136 4 116 3.2 6.4 0.00 0.00 0.00 43 1019.8
20260502053634 5 93 3.2 4.8 0.00 0.00 0.00 45 1019.7
20260502053131 5 91 3.2 4.8 0.00 0.00 0.00 44 1019.8
20260502052629 5 110 4.8 6.4 0.00 0.00 0.00 40 1019.9
20260502052127 6 108 4.8 6.4 0.00 0.00 0.00 39 1019.6
20260502051625 5 111 6.4 8.0 0.00 0.00 0.00 41 1019.8
20260502051123 6 94 8.0 9.7 0.00 0.00 0.00 39 1019.8
20260502050618 6 98 3.2 6.4 0.00 0.00 0.00 38 1019.7
20260502050115 6 108 6.4 9.7 0.00 0.00 0.00 38 1019.6
20260502045611 6 103 6.4 9.7 0.00 0.00 0.00 38 1019.7
20260502045109 6 131 3.2 8.0 0.00 0.00 0.00 38 1019.6
20260502044605 6 129 3.2 8.0 0.00 0.00 0.00 37 1019.7
20260502044102 7 123 8.0 8.0 0.00 0.00 0.00 36 1019.8
20260502043600 7 95 1.6 6.4 0.00 0.00 0.00 36 1019.8
20260502043057 7 119 1.6 6.4 0.00 0.00 0.00 36 1019.8
20260502042556 7 130 3.2 6.4 0.00 0.00 0.00 35 1019.5
20260502042054 7 112 1.6 8.0 0.00 0.00 0.00 35 1019.6
20260502041552 7 137 3.2 8.0 0.00 0.00 0.00 33 1019.7
20260502041049 7 123 3.2 6.4 0.00 0.00 0.00 34 1019.8
20260502040545 7 118 4.8 8.0 0.00 0.00 0.00 35 1019.6
20260502040043 7 101 4.8 9.7 0.00 0.00 0.00 35 1019.7
20260502035538 7 103 4.8 6.4 0.00 0.00 0.00 34 1019.4
20260502035036 8 114 4.8 8.0 0.00 0.00 0.00 33 1019.5
20260502034534 8 139 4.8 8.0 0.00 0.00 0.00 33 1019.5
20260502034032 8 98 6.4 6.4 0.00 0.00 0.00 34 1019.6
20260502033530 8 110 4.8 8.0 0.00 0.00 0.00 33 1019.4
20260502033027 9 126 6.4 8.0 0.00 0.00 0.00 31 1019.5
20260502032522 10 125 4.8 6.4 0.00 0.00 0.00 30 1019.5
20260502032020 9 121 8.0 8.0 0.00 0.00 0.00 28 1019.4
20260502031518 8 140 6.4 9.7 0.00 0.00 0.00 31 1019.4
20260502031015 8 115 8.0 9.7 0.00 0.00 0.00 31 1019.2
20260502030514 8 103 6.4 8.0 0.00 0.00 0.00 32 1019.1
20260502030012 9 99 1.6 4.8 0.00 0.00 0.00 33 1019.1
20260502025509 10 118 6.4 9.7 0.00 0.00 0.00 31 1019.1
20260502025007 10 125 9.7 12.9 0.00 0.00 0.00 27 1018.9
20260502024504 10 95 9.7 11.3 0.00 0.00 0.00 29 1018.9
20260502024003 10 98 11.3 14.5 0.00 0.00 0.00 30 1018.9
20260502023459 11 83 8.0 11.3 0.00 0.00 0.00 29 1018.8
20260502022956 11 87 8.0 9.7 0.00 0.00 0.00 31 1018.8
20260502022453 12 104 8.0 9.7 0.00 0.00 0.00 30 1018.9
20260502021950 13 73 9.7 9.7 0.00 0.00 0.00 28 1018.8
20260502021448 14 66 6.4 9.7 0.00 0.00 0.00 23 1018.7
20260502020944 15 75 4.8 6.4 0.00 0.00 0.00 18 1019.0
20260502020443 15 79 4.8 6.4 0.00 0.00 0.00 16 1019.1
20260502015939 16 84 4.8 4.8 0.00 0.00 0.00 19 1018.9
20260502015437 17 98 4.8 8.0 0.00 0.00 0.00 13 1018.8
20260502014933 17 89 4.8 4.8 0.00 0.00 0.00 14 1019.0
20260502014430 17 84 3.2 4.8 0.00 0.00 0.00 13 1018.9
20260502013926 17 88 3.2 4.8 0.00 0.00 0.00 14 1018.9
20260502013421 17 75 4.8 6.4 0.00 0.00 0.00 17 1019.2
20260502012047 17 65 4.8 6.4 0.00 0.00 0.00 17 1019.4
20260502011543 17 65 4.8 6.4 0.00 0.00 0.00 17 1019.4
20260502011039 18 63 4.8 8.0 0.00 0.00 0.00 11 1019.2
20260502010537 18 52 4.8 8.0 0.00 0.00 0.00 10 1019.2
20260502010033 18 34 9.7 9.7 0.00 0.00 0.00 14 1019.1
20260502005531 18 50 11.3 11.3 0.00 0.00 0.00 12 1019.2
20260502005029 18 64 8.0 9.7 0.00 0.00 0.00 13 1019.4
20260502004524 18 68 8.0 8.0 0.00 0.00 0.00 11 1019.4
20260502004021 18 82 6.4 8.0 0.00 0.00 0.00 13 1019.5
20260502003519 18 78 6.4 8.0 0.00 0.00 0.00 15 1019.6
20260502003015 18 10 3.2 8.0 0.00 0.00 0.00 16 1019.4
20260502002512 18 110 6.4 9.7 0.00 0.00 0.00 11 1019.6
20260502002010 18 85 4.8 8.0 0.00 0.00 0.00 12 1019.5
20260502001507 18 79 3.2 8.0 0.00 0.00 0.00 9 1019.5
20260502001004 18 155 3.2 8.0 0.00 0.00 0.00 12 1019.4
20260502000503 18 136 4.8 8.0 0.00 0.00 0.00 11 1019.5
20260501235959 19 12 0.0 4.8 0.00 0.00 0.00 10 1019.7
20260501235454 19 5 8.0 11.3 0.00 0.00 0.00 11 1019.4
20260501234950 20 60 6.4 6.4 0.00 0.00 0.00 13 1019.6
20260501234447 20 36 6.4 6.4 0.00 0.00 0.00 12 1019.7
20260501233945 20 65 11.3 11.3 0.00 0.00 0.00 14 1019.8
20260501233443 20 70 3.2 8.0 0.00 0.00 0.00 15 1019.6
20260501232938 20 39 3.2 6.4 0.00 0.00 0.00 9 1019.6
20260501232435 20 38 4.8 12.9 0.00 0.00 0.00 9 1019.7
20260501231932 20 358 1.6 6.4 0.00 0.00 0.00 11 1019.8
20260501231431 20 328 3.2 9.7 0.00 0.00 0.00 13 1019.8
20260501230929 20 163 6.4 9.7 0.00 0.00 0.00 11 1020.0
20260501230427 20 134 3.2 8.0 0.00 0.00 0.00 12 1019.9
20260501225925 20 106 6.4 9.7 0.00 0.00 0.00 12 1019.9
20260501225422 19 32 8.0 14.5 0.00 0.00 0.00 11 1019.8
20260501224917 21 344 3.2 6.4 0.00 0.00 0.00 11 1020.2
20260501224415 20 335 1.6 4.8 0.00 0.00 0.00 17 1020.3
20260501223912 20 181 3.2 6.4 0.00 0.00 0.00 10 1020.0
20260501223408 20 27 0.0 8.0 0.00 0.00 0.00 11 1020.2
20260501222904 20 187 3.2 6.4 0.00 0.00 0.00 10 1020.3
20260501222402 20 105 3.2 6.4 0.00 0.00 0.00 12 1020.3
20260501221858 20 184 4.8 9.7 0.00 0.00 0.00 11 1020.4
20260501221355 19 97 3.2 6.4 0.00 0.00 0.00 17 1020.6
20260501220853 18 79 8.0 14.5 0.00 0.00 0.00 15 1020.6
20260501220350 18 116 8.0 11.3 0.00 0.00 0.00 15 1020.7
20260501215846 19 190 1.6 12.9 0.00 0.00 0.00 14 1020.7
20260501215343 18 25 0.0 4.8 0.00 0.00 0.00 14 1020.8
20260501214838 18 123 6.4 9.7 0.00 0.00 0.00 14 1020.7
20260501214334 18 165 8.0 9.7 0.00 0.00 0.00 17 1020.7
20260501213830 18 102 8.0 11.3 0.00 0.00 0.00 19 1021.1
20260501213327 18 127 4.8 9.7 0.00 0.00 0.00 14 1021.0
20260501212822 18 117 6.4 8.0 0.00 0.00 0.00 16 1021.1
20260501212319 18 51 8.0 11.3 0.00 0.00 0.00 17 1021.1
20260501211816 18 81 9.7 14.5 0.00 0.00 0.00 14 1021.2
20260501211314 18 339 0.0 8.0 0.00 0.00 0.00 14 1021.2
20260501210811 18 349 3.2 11.3 0.00 0.00 0.00 15 1021.1
20260501210308 18 7 3.2 6.4 0.00 0.00 0.00 16 1021.2
20260501205804 18 189 9.7 9.7 0.00 0.00 0.00 15 1021.3
20260501205301 18 349 1.6 6.4 0.00 0.00 0.00 14 1021.2
20260501204757 17 3 1.6 4.8 0.00 0.00 0.00 17 1021.4
20260501204254 17 16 6.4 12.9 0.00 0.00 0.00 14 1021.5
20260501203750 17 332 6.4 12.9 0.00 0.00 0.00 17 1021.4
20260501203248 17 159 3.2 6.4 0.00 0.00 0.00 22 1021.5
20260501202745 17 79 3.2 4.8 0.00 0.00 0.00 19 1021.6
20260501202241 17 327 4.8 4.8 0.00 0.00 0.00 21 1021.6
20260501201738 17 330 8.0 9.7 0.00 0.00 0.00 16 1021.9
20260501201235 17 45 9.7 11.3 0.00 0.00 0.00 18 1021.6
20260501200732 17 318 6.4 8.0 0.00 0.00 0.00 17 1021.6